contact:dominique.lefevre@mio.osupytheas.fr, maurice.libes@osupytheas.fr, didier.mallarino@osupytheas.fr
Project:EMSO http://www.emso-fr.org/EMSO-France
Depth: 2436.0 m
Title:EMSO Ligure Ouest : Data MII capteur MICROCAT
DateTime_Computer,Latitude,Longitude,Temperature,Conductivity,Pressure,DateTime_Instrument
DateTime_Computer,Latitude,Longitude,degC,S m-1,dbar,DateTime_Instrument
2020-07-23T00:02:14Z,42.805,6.029,13.3043,4.60029,2470.124,2020-7-23T02:03:01Z
2020-07-23T00:05:17Z,42.805,6.029,13.3051,4.60045,2470.171,2020-7-23T02:06:05Z
2020-07-23T00:08:20Z,42.805,6.029,13.3045,4.60052,2470.147,2020-7-23T02:09:08Z
2020-07-23T00:11:24Z,42.805,6.029,13.3053,4.60022,2470.171,2020-7-23T02:12:11Z
2020-07-23T00:14:27Z,42.805,6.029,13.3034,4.60031,2470.133,2020-7-23T02:15:14Z
2020-07-23T00:17:30Z,42.805,6.029,13.2983,4.60046,2470.133,2020-7-23T02:18:18Z
2020-07-23T00:20:33Z,42.805,6.029,13.3004,4.60044,2470.147,2020-7-23T02:21:21Z
2020-07-23T00:23:37Z,42.805,6.029,13.3010,4.60041,2470.133,2020-7-23T02:24:24Z
2020-07-23T00:26:40Z,42.805,6.029,13.2998,4.60064,2470.124,2020-7-23T02:27:27Z
2020-07-23T00:29:43Z,42.805,6.029,13.2998,4.60041,2470.171,2020-7-23T02:30:30Z
2020-07-23T00:32:46Z,42.805,6.029,13.2985,4.60041,2470.147,2020-7-23T02:33:34Z
2020-07-23T00:35:50Z,42.805,6.029,13.3000,4.60010,2470.156,2020-7-23T02:36:37Z
2020-07-23T00:38:53Z,42.805,6.029,13.2984,4.60072,2470.133,2020-7-23T02:39:40Z
2020-07-23T00:41:56Z,42.805,6.029,13.3001,4.60007,2470.147,2020-7-23T02:42:44Z
2020-07-23T00:45:00Z,42.805,6.029,13.3024,4.60055,2470.147,2020-7-23T02:45:47Z
2020-07-23T00:48:03Z,42.805,6.029,13.3024,4.60033,2470.147,2020-7-23T02:48:50Z
2020-07-23T00:51:06Z,42.805,6.029,13.2990,4.60079,2470.124,2020-7-23T02:51:54Z
2020-07-23T00:54:10Z,42.805,6.029,13.2997,4.60045,2470.124,2020-7-23T02:54:57Z
2020-07-23T00:57:13Z,42.805,6.029,13.3001,4.60064,2470.11,2020-7-23T02:58:00Z
2020-07-23T01:00:16Z,42.805,6.029,13.3003,4.60047,2470.11,2020-7-23T03:01:03Z
2020-07-23T01:03:19Z,42.805,6.029,13.2999,4.60041,2470.11,2020-7-23T03:04:06Z
2020-07-23T01:06:22Z,42.805,6.029,13.3002,4.60032,2470.077,2020-7-23T03:07:10Z
2020-07-23T01:09:26Z,42.805,6.029,13.3013,4.60046,2470.1,2020-7-23T03:10:13Z
2020-07-23T01:12:29Z,42.805,6.029,13.2999,4.60062,2470.087,2020-7-23T03:13:16Z
2020-07-23T01:15:32Z,42.805,6.029,13.2988,4.60067,2470.124,2020-7-23T03:16:19Z
2020-07-23T01:18:35Z,42.805,6.029,13.3007,4.60077,2470.11,2020-7-23T03:19:23Z
2020-07-23T01:21:39Z,42.805,6.029,13.2994,4.60046,2470.1,2020-7-23T03:22:26Z
2020-07-23T01:24:42Z,42.805,6.029,13.2998,4.60077,2470.124,2020-7-23T03:25:29Z
2020-07-23T01:27:45Z,42.805,6.029,13.3006,4.60059,2470.087,2020-7-23T03:28:32Z
2020-07-23T01:30:48Z,42.805,6.029,13.3012,4.60067,2470.087,2020-7-23T03:31:36Z
2020-07-23T01:33:52Z,42.805,6.029,13.2998,4.60074,2470.1,2020-7-23T03:34:39Z
2020-07-23T01:36:55Z,42.805,6.029,13.2988,4.60066,2470.04,2020-7-23T03:37:42Z
2020-07-23T01:39:58Z,42.805,6.029,13.2996,4.60062,2470.087,2020-7-23T03:40:46Z
2020-07-23T01:43:02Z,42.805,6.029,13.3019,4.60035,2470.063,2020-7-23T03:43:49Z
2020-07-23T01:46:05Z,42.805,6.029,13.3000,4.60077,2470.077,2020-7-23T03:46:52Z
2020-07-23T01:49:08Z,42.805,6.029,13.2990,4.60078,2470.077,2020-7-23T03:49:56Z
2020-07-23T01:52:11Z,42.805,6.029,13.3000,4.60057,2470.087,2020-7-23T03:52:59Z
2020-07-23T01:55:15Z,42.805,6.029,13.3007,4.60061,2470.026,2020-7-23T03:56:02Z
2020-07-23T01:58:18Z,42.805,6.029,13.2990,4.60037,2470.087,2020-7-23T03:59:05Z
2020-07-23T02:01:21Z,42.805,6.029,13.2989,4.60063,2470.04,2020-7-23T04:02:09Z
2020-07-23T02:04:24Z,42.805,6.029,13.2995,4.60048,2470.077,2020-7-23T04:05:12Z
2020-07-23T02:07:27Z,42.805,6.029,13.2989,4.60059,2470.063,2020-7-23T04:08:15Z
2020-07-23T02:10:31Z,42.805,6.029,13.2986,4.60056,2470.04,2020-7-23T04:11:18Z
2020-07-23T02:13:34Z,42.805,6.029,13.2989,4.60031,2470.087,2020-7-23T04:14:21Z
2020-07-23T02:16:37Z,42.805,6.029,13.2998,4.60060,2470.063,2020-7-23T04:17:25Z
2020-07-23T02:19:41Z,42.805,6.029,13.2998,4.60076,2470.04,2020-7-23T04:20:28Z
2020-07-23T02:22:44Z,42.805,6.029,13.3000,4.60072,2470.053,2020-7-23T04:23:31Z
2020-07-23T02:25:47Z,42.805,6.029,13.2994,4.60064,2470.03,2020-7-23T04:26:34Z
2020-07-23T02:28:50Z,42.805,6.029,13.3004,4.60053,2470.04,2020-7-23T04:29:38Z
2020-07-23T02:31:53Z,42.805,6.029,13.2996,4.60041,2470.077,2020-7-23T04:32:41Z
2020-07-23T02:34:57Z,42.805,6.029,13.2984,4.60069,2470.03,2020-7-23T04:35:44Z
2020-07-23T02:38:00Z,42.805,6.029,13.2996,4.60060,2470.03,2020-7-23T04:38:47Z
2020-07-23T02:41:03Z,42.805,6.029,13.2991,4.60052,2470.053,2020-7-23T04:41:51Z
2020-07-23T02:44:06Z,42.805,6.029,13.2986,4.60083,2470.03,2020-7-23T04:44:54Z
2020-07-23T02:47:10Z,42.805,6.029,13.3017,4.60046,2470.053,2020-7-23T04:47:57Z
2020-07-23T02:50:13Z,42.805,6.029,13.2993,4.60060,2470.03,2020-7-23T04:51:00Z
2020-07-23T02:53:16Z,42.805,6.029,13.2993,4.60080,2470.03,2020-7-23T04:54:04Z
2020-07-23T02:56:19Z,42.805,6.029,13.2991,4.60057,2470.026,2020-7-23T04:57:07Z
2020-07-23T02:59:23Z,42.805,6.029,13.2989,4.60045,2470.053,2020-7-23T05:00:10Z
2020-07-23T03:02:26Z,42.805,6.029,13.2991,4.60021,2470.04,2020-7-23T05:03:13Z
2020-07-23T03:05:29Z,42.805,6.029,13.2988,4.60039,2470.053,2020-7-23T05:06:17Z
2020-07-23T03:08:32Z,42.805,6.029,13.2983,4.60021,2470.017,2020-7-23T05:09:20Z
2020-07-23T03:11:36Z,42.805,6.029,13.2988,4.60021,2470.04,2020-7-23T05:12:23Z
2020-07-23T03:14:39Z,42.805,6.029,13.2991,4.60026,2470.053,2020-7-23T05:15:26Z
2020-07-23T03:17:42Z,42.805,6.029,13.2993,4.60022,2470.017,2020-7-23T05:18:30Z
2020-07-23T03:20:45Z,42.805,6.029,13.2995,4.60047,2470.077,2020-7-23T05:21:33Z
2020-07-23T03:23:49Z,42.805,6.029,13.2997,4.60031,2469.993,2020-7-23T05:24:36Z
2020-07-23T03:26:52Z,42.805,6.029,13.3005,4.60069,2469.993,2020-7-23T05:27:39Z
2020-07-23T03:29:55Z,42.805,6.029,13.3007,4.60046,2469.993,2020-7-23T05:30:42Z
2020-07-23T03:32:58Z,42.805,6.029,13.3004,4.60044,2470.017,2020-7-23T05:33:46Z
2020-07-23T03:36:02Z,42.805,6.029,13.2995,4.60054,2470.03,2020-7-23T05:36:49Z
2020-07-23T03:39:05Z,42.805,6.029,13.2996,4.60062,2470.03,2020-7-23T05:39:52Z
2020-07-23T03:42:08Z,42.805,6.029,13.2991,4.60047,2470.03,2020-7-23T05:42:55Z
2020-07-23T03:45:11Z,42.805,6.029,13.2983,4.60057,2470.03,2020-7-23T05:45:59Z
2020-07-23T03:48:14Z,42.805,6.029,13.2994,4.60065,2469.993,2020-7-23T05:49:02Z
2020-07-23T03:51:18Z,42.805,6.029,13.3002,4.60075,2470.053,2020-7-23T05:52:05Z
2020-07-23T03:54:21Z,42.805,6.029,13.2992,4.60046,2470.053,2020-7-23T05:55:08Z
2020-07-23T03:57:24Z,42.805,6.029,13.3003,4.60067,2470.03,2020-7-23T05:58:11Z
2020-07-23T04:00:27Z,42.805,6.029,13.2996,4.60027,2470.017,2020-7-23T06:01:15Z
2020-07-23T04:03:31Z,42.805,6.029,13.2992,4.60049,2470.007,2020-7-23T06:04:18Z
2020-07-23T04:06:34Z,42.805,6.029,13.2998,4.60029,2469.984,2020-7-23T06:07:21Z
2020-07-23T04:09:37Z,42.805,6.029,13.3002,4.60036,2470.007,2020-7-23T06:10:24Z
2020-07-23T04:12:40Z,42.805,6.029,13.2988,4.60040,2470.017,2020-7-23T06:13:28Z
2020-07-23T04:15:44Z,42.805,6.029,13.2995,4.60042,2470.007,2020-7-23T06:16:31Z
2020-07-23T04:18:47Z,42.805,6.029,13.2988,4.60023,2469.997,2020-7-23T06:19:34Z
2020-07-23T04:21:50Z,42.805,6.029,13.2991,4.60037,2470.007,2020-7-23T06:22:37Z
2020-07-23T04:24:53Z,42.805,6.029,13.2994,4.60027,2470.007,2020-7-23T06:25:41Z
2020-07-23T04:27:57Z,42.805,6.029,13.2996,4.60033,2470.03,2020-7-23T06:28:44Z
2020-07-23T04:31:00Z,42.805,6.029,13.2991,4.60036,2469.993,2020-7-23T06:31:47Z
2020-07-23T04:34:03Z,42.805,6.029,13.2991,4.60022,2470.007,2020-7-23T06:34:50Z
2020-07-23T04:37:06Z,42.805,6.029,13.2993,4.60061,2470.053,2020-7-23T06:37:54Z
2020-07-23T04:40:10Z,42.805,6.029,13.2998,4.60026,2470.017,2020-7-23T06:40:57Z
2020-07-23T04:43:13Z,42.805,6.029,13.2993,4.60032,2470.017,2020-7-23T06:44:00Z
2020-07-23T04:46:16Z,42.805,6.029,13.2987,4.60019,2470.03,2020-7-23T06:47:03Z
2020-07-23T04:49:19Z,42.805,6.029,13.2985,4.60013,2470.03,2020-7-23T06:50:07Z
2020-07-23T04:52:23Z,42.805,6.029,13.2983,4.60019,2470.053,2020-7-23T06:53:10Z
2020-07-23T04:55:26Z,42.805,6.029,13.2982,4.60011,2470.063,2020-7-23T06:56:13Z
2020-07-23T04:58:29Z,42.805,6.029,13.2986,4.60015,2470.063,2020-7-23T06:59:16Z
2020-07-23T05:01:32Z,42.805,6.029,13.2985,4.60029,2470.053,2020-7-23T07:02:20Z
2020-07-23T05:04:35Z,42.805,6.029,13.2980,4.60014,2470.077,2020-7-23T07:05:23Z
2020-07-23T05:07:39Z,42.805,6.029,13.2987,4.60044,2470.03,2020-7-23T07:08:26Z
2020-07-23T05:10:42Z,42.805,6.029,13.2991,4.60025,2470.017,2020-7-23T07:11:29Z
2020-07-23T05:13:45Z,42.805,6.029,13.2982,4.60014,2470.04,2020-7-23T07:14:33Z
2020-07-23T05:16:48Z,42.805,6.029,13.2985,4.60031,2470.053,2020-7-23T07:17:36Z
2020-07-23T05:19:52Z,42.805,6.029,13.2984,4.60010,2470.026,2020-7-23T07:20:39Z
2020-07-23T05:22:55Z,42.805,6.029,13.2993,4.60005,2470.03,2020-7-23T07:23:42Z
2020-07-23T05:25:58Z,42.805,6.029,13.2986,4.60009,2470.077,2020-7-23T07:26:45Z
2020-07-23T05:29:01Z,42.805,6.029,13.2989,4.60005,2470.053,2020-7-23T07:29:49Z
2020-07-23T05:32:05Z,42.805,6.029,13.2986,4.60009,2470.063,2020-7-23T07:32:52Z
2020-07-23T05:35:08Z,42.805,6.029,13.2987,4.60037,2470.063,2020-7-23T07:35:55Z
2020-07-23T05:38:11Z,42.805,6.029,13.2990,4.60026,2470.077,2020-7-23T07:38:59Z
2020-07-23T05:41:14Z,42.805,6.029,13.3008,4.60007,2470.053,2020-7-23T07:42:02Z
2020-07-23T05:44:18Z,42.805,6.029,13.2985,4.60009,2470.04,2020-7-23T07:45:05Z
2020-07-23T05:47:21Z,42.805,6.029,13.2987,4.60010,2470.087,2020-7-23T07:48:08Z
2020-07-23T05:50:24Z,42.805,6.029,13.2993,4.60014,2470.063,2020-7-23T07:51:11Z
2020-07-23T05:53:27Z,42.805,6.029,13.2990,4.60036,2470.1,2020-7-23T07:54:15Z
2020-07-23T05:56:30Z,42.805,6.029,13.2990,4.60032,2470.063,2020-7-23T07:57:18Z
2020-07-23T05:59:34Z,42.805,6.029,13.3000,4.60021,2470.063,2020-7-23T08:00:21Z
2020-07-23T06:02:37Z,42.805,6.029,13.2979,4.60010,2470.073,2020-7-23T08:03:24Z
2020-07-23T06:05:40Z,42.805,6.029,13.2982,4.60003,2470.077,2020-7-23T08:06:27Z
2020-07-23T06:08:43Z,42.805,6.029,13.2979,4.60012,2470.1,2020-7-23T08:09:31Z
2020-07-23T06:11:46Z,42.805,6.029,13.2983,4.60011,2470.1,2020-7-23T08:12:34Z
2020-07-23T06:14:50Z,42.805,6.029,13.2985,4.60019,2470.124,2020-7-23T08:15:37Z
2020-07-23T06:17:53Z,42.805,6.029,13.2998,4.59987,2470.11,2020-7-23T08:18:40Z
2020-07-23T06:20:56Z,42.805,6.029,13.2983,4.60006,2470.063,2020-7-23T08:21:44Z
2020-07-23T06:23:59Z,42.805,6.029,13.2985,4.60010,2470.1,2020-7-23T08:24:47Z
2020-07-23T06:27:03Z,42.805,6.029,13.2980,4.60021,2470.087,2020-7-23T08:27:50Z
2020-07-23T06:30:06Z,42.805,6.029,13.2985,4.60002,2470.077,2020-7-23T08:30:53Z
2020-07-23T06:33:09Z,42.805,6.029,13.2985,4.60017,2470.087,2020-7-23T08:33:56Z
2020-07-23T06:36:12Z,42.805,6.029,13.2982,4.60019,2470.147,2020-7-23T08:37:00Z
2020-07-23T06:39:16Z,42.805,6.029,13.2984,4.60015,2470.11,2020-7-23T08:40:03Z
2020-07-23T06:42:19Z,42.805,6.029,13.2986,4.60011,2470.087,2020-7-23T08:43:06Z
2020-07-23T06:45:22Z,42.805,6.029,13.2982,4.60019,2470.147,2020-7-23T08:46:09Z
2020-07-23T06:48:25Z,42.805,6.029,13.3006,4.60041,2470.11,2020-7-23T08:49:13Z
2020-07-23T06:51:29Z,42.805,6.029,13.2983,4.60021,2470.133,2020-7-23T08:52:16Z
2020-07-23T06:54:32Z,42.805,6.029,13.2984,4.60002,2470.087,2020-7-23T08:55:19Z
2020-07-23T06:57:35Z,42.805,6.029,13.2988,4.60020,2470.087,2020-7-23T08:58:23Z
2020-07-23T07:00:38Z,42.805,6.029,13.2986,4.60001,2470.133,2020-7-23T09:01:26Z
2020-07-23T07:03:42Z,42.805,6.029,13.2990,4.60010,2470.147,2020-7-23T09:04:29Z
2020-07-23T07:06:45Z,42.805,6.029,13.2994,4.60026,2470.147,2020-7-23T09:07:32Z
2020-07-23T07:09:48Z,42.805,6.029,13.2986,4.60039,2470.147,2020-7-23T09:10:35Z
2020-07-23T07:12:51Z,42.805,6.029,13.2986,4.60029,2470.171,2020-7-23T09:13:39Z
2020-07-23T07:15:55Z,42.805,6.029,13.2993,4.60008,2470.133,2020-7-23T09:16:42Z
2020-07-23T07:18:58Z,42.805,6.029,13.2982,4.60016,2470.11,2020-7-23T09:19:45Z
2020-07-23T07:22:01Z,42.805,6.029,13.2986,4.60005,2470.133,2020-7-23T09:22:48Z
2020-07-23T07:25:04Z,42.805,6.029,13.2979,4.60002,2470.133,2020-7-23T09:25:52Z
2020-07-23T07:28:07Z,42.805,6.029,13.2983,4.60011,2470.147,2020-7-23T09:28:55Z
2020-07-23T07:31:11Z,42.805,6.029,13.2990,4.60001,2470.133,2020-7-23T09:31:58Z
2020-07-23T07:34:14Z,42.805,6.029,13.2993,4.60014,2470.156,2020-7-23T09:35:01Z
2020-07-23T07:37:17Z,42.805,6.029,13.2987,4.59996,2470.171,2020-7-23T09:38:05Z
2020-07-23T07:40:20Z,42.805,6.029,13.2988,4.60000,2470.147,2020-7-23T09:41:08Z
2020-07-23T07:43:24Z,42.805,6.029,13.2983,4.60010,2470.171,2020-7-23T09:44:11Z
2020-07-23T07:46:27Z,42.805,6.029,13.2992,4.60033,2470.133,2020-7-23T09:47:14Z
2020-07-23T07:49:30Z,42.805,6.029,13.2986,4.60014,2470.171,2020-7-23T09:50:18Z
2020-07-23T07:52:33Z,42.805,6.029,13.2982,4.59998,2470.147,2020-7-23T09:53:21Z
2020-07-23T07:55:37Z,42.805,6.029,13.2983,4.60005,2470.133,2020-7-23T09:56:24Z
2020-07-23T07:58:40Z,42.805,6.029,13.2994,4.60016,2470.156,2020-7-23T09:59:27Z
2020-07-23T08:01:43Z,42.805,6.029,13.2989,4.60014,2470.133,2020-7-23T10:02:31Z
2020-07-23T08:04:46Z,42.805,6.029,13.2988,4.59999,2470.133,2020-7-23T10:05:34Z
2020-07-23T08:07:50Z,42.805,6.029,13.2985,4.60019,2470.156,2020-7-23T10:08:37Z
2020-07-23T08:10:53Z,42.805,6.029,13.3003,4.60024,2470.133,2020-7-23T10:11:40Z
2020-07-23T08:13:56Z,42.805,6.029,13.2989,4.60026,2470.133,2020-7-23T10:14:44Z
2020-07-23T08:16:59Z,42.805,6.029,13.3004,4.60023,2470.156,2020-7-23T10:17:47Z
2020-07-23T08:20:03Z,42.805,6.029,13.2986,4.60040,2470.156,2020-7-23T10:20:50Z
2020-07-23T08:23:06Z,42.805,6.029,13.2991,4.60003,2470.133,2020-7-23T10:23:53Z
2020-07-23T08:26:09Z,42.805,6.029,13.2990,4.60005,2470.11,2020-7-23T10:26:57Z
2020-07-23T08:29:12Z,42.805,6.029,13.2993,4.60019,2470.156,2020-7-23T10:30:00Z
2020-07-23T08:32:16Z,42.805,6.029,13.2985,4.59997,2470.133,2020-7-23T10:33:03Z
2020-07-23T08:35:19Z,42.805,6.029,13.2991,4.60016,2470.156,2020-7-23T10:36:06Z
2020-07-23T08:38:22Z,42.805,6.029,13.2987,4.60016,2470.156,2020-7-23T10:39:10Z
2020-07-23T08:41:25Z,42.805,6.029,13.2991,4.60004,2470.124,2020-7-23T10:42:13Z
2020-07-23T08:44:29Z,42.805,6.029,13.2988,4.60023,2470.156,2020-7-23T10:45:16Z
2020-07-23T08:47:32Z,42.805,6.029,13.3002,4.60026,2470.156,2020-7-23T10:48:19Z
2020-07-23T08:50:35Z,42.805,6.029,13.2991,4.60026,2470.156,2020-7-23T10:51:22Z
2020-07-23T08:53:38Z,42.805,6.029,13.2982,4.60009,2470.147,2020-7-23T10:54:26Z
2020-07-23T08:56:42Z,42.805,6.029,13.2982,4.60016,2470.147,2020-7-23T10:57:29Z
2020-07-23T08:59:45Z,42.805,6.029,13.2983,4.60016,2470.147,2020-7-23T11:00:32Z
2020-07-23T09:02:48Z,42.805,6.029,13.2980,4.60019,2470.171,2020-7-23T11:03:35Z
2020-07-23T09:05:51Z,42.805,6.029,13.2985,4.59999,2470.143,2020-7-23T11:06:39Z
2020-07-23T09:08:55Z,42.805,6.029,13.2982,4.59993,2470.171,2020-7-23T11:09:42Z
2020-07-23T09:11:58Z,42.805,6.029,13.2986,4.60003,2470.194,2020-7-23T11:12:45Z
2020-07-23T09:15:01Z,42.805,6.029,13.2982,4.59999,2470.147,2020-7-23T11:15:49Z
2020-07-23T09:18:05Z,42.805,6.029,13.2989,4.60009,2470.171,2020-7-23T11:18:52Z
2020-07-23T09:21:08Z,42.805,6.029,13.2986,4.60022,2470.147,2020-7-23T11:21:55Z
2020-07-23T09:24:11Z,42.805,6.029,13.2985,4.60013,2470.156,2020-7-23T11:24:58Z
2020-07-23T09:27:14Z,42.805,6.029,13.2993,4.60018,2470.156,2020-7-23T11:28:02Z
2020-07-23T09:30:17Z,42.805,6.029,13.2978,4.59996,2470.194,2020-7-23T11:31:05Z
2020-07-23T09:33:21Z,42.805,6.029,13.2990,4.60003,2470.124,2020-7-23T11:34:08Z
2020-07-23T09:36:24Z,42.805,6.029,13.2982,4.60020,2470.171,2020-7-23T11:37:12Z
2020-07-23T09:39:28Z,42.805,6.029,13.2997,4.60020,2470.147,2020-7-23T11:40:15Z
2020-07-23T09:42:31Z,42.805,6.029,13.2998,4.60031,2470.147,2020-7-23T11:43:18Z
2020-07-23T09:45:34Z,42.805,6.029,13.2980,4.60028,2470.156,2020-7-23T11:46:22Z
2020-07-23T09:48:37Z,42.805,6.029,13.3000,4.60017,2470.171,2020-7-23T11:49:25Z
2020-07-23T09:51:41Z,42.805,6.029,13.3007,4.60028,2470.11,2020-7-23T11:52:28Z
2020-07-23T09:54:44Z,42.805,6.029,13.3000,4.60047,2470.133,2020-7-23T11:55:31Z
2020-07-23T09:57:47Z,42.805,6.029,13.2988,4.60032,2470.147,2020-7-23T11:58:34Z
2020-07-23T10:00:50Z,42.805,6.029,13.2996,4.60028,2470.171,2020-7-23T12:01:38Z
2020-07-23T10:03:54Z,42.805,6.029,13.3003,4.60031,2470.147,2020-7-23T12:04:41Z
2020-07-23T10:06:57Z,42.805,6.029,13.2978,4.60004,2470.124,2020-7-23T12:07:44Z
2020-07-23T10:10:00Z,42.805,6.029,13.2982,4.59997,2470.133,2020-7-23T12:10:48Z
2020-07-23T10:13:03Z,42.805,6.029,13.2983,4.60007,2470.11,2020-7-23T12:13:51Z
2020-07-23T10:16:07Z,42.805,6.029,13.2980,4.60027,2470.11,2020-7-23T12:16:54Z
2020-07-23T10:19:10Z,42.805,6.029,13.2992,4.60026,2470.11,2020-7-23T12:19:57Z
2020-07-23T10:22:13Z,42.805,6.029,13.3002,4.60026,2470.11,2020-7-23T12:23:01Z
2020-07-23T10:25:16Z,42.805,6.029,13.2996,4.60013,2470.087,2020-7-23T12:26:04Z
2020-07-23T10:28:20Z,42.805,6.029,13.2990,4.60038,2470.087,2020-7-23T12:29:07Z
2020-07-23T10:31:23Z,42.805,6.029,13.2988,4.60024,2470.11,2020-7-23T12:32:10Z
2020-07-23T10:34:26Z,42.805,6.029,13.2985,4.59999,2470.11,2020-7-23T12:35:14Z
2020-07-23T10:37:29Z,42.805,6.029,13.2979,4.60003,2470.147,2020-7-23T12:38:17Z
2020-07-23T10:40:33Z,42.805,6.029,13.2975,4.60026,2470.124,2020-7-23T12:41:20Z
2020-07-23T10:43:36Z,42.805,6.029,13.2981,4.60006,2470.133,2020-7-23T12:44:23Z
2020-07-23T10:46:39Z,42.805,6.029,13.2993,4.60029,2470.124,2020-7-23T12:47:26Z
2020-07-23T10:49:42Z,42.805,6.029,13.2988,4.60002,2470.11,2020-7-23T12:50:30Z
2020-07-23T10:52:46Z,42.805,6.029,13.2985,4.60011,2470.11,2020-7-23T12:53:33Z
2020-07-23T10:55:49Z,42.805,6.029,13.2995,4.60003,2470.171,2020-7-23T12:56:36Z
2020-07-23T10:58:52Z,42.805,6.029,13.2990,4.60025,2470.11,2020-7-23T12:59:39Z
2020-07-23T11:01:55Z,42.805,6.029,13.3001,4.60044,2470.11,2020-7-23T13:02:43Z
2020-07-23T11:04:58Z,42.805,6.029,13.3001,4.60028,2470.1,2020-7-23T13:05:46Z
2020-07-23T11:08:02Z,42.805,6.029,13.3007,4.60029,2470.077,2020-7-23T13:08:49Z
2020-07-23T11:11:05Z,42.805,6.029,13.3004,4.60037,2470.124,2020-7-23T13:11:52Z
2020-07-23T11:14:08Z,42.805,6.029,13.2989,4.60035,2470.1,2020-7-23T13:14:56Z
2020-07-23T11:17:11Z,42.805,6.029,13.2999,4.60039,2470.1,2020-7-23T13:17:59Z
2020-07-23T11:20:15Z,42.805,6.029,13.3010,4.60040,2470.087,2020-7-23T13:21:02Z
2020-07-23T11:23:18Z,42.805,6.029,13.2999,4.60057,2470.1,2020-7-23T13:24:05Z
2020-07-23T11:26:21Z,42.805,6.029,13.2998,4.60072,2470.077,2020-7-23T13:27:09Z
2020-07-23T11:29:24Z,42.805,6.029,13.2983,4.60057,2470.124,2020-7-23T13:30:12Z
2020-07-23T11:32:28Z,42.805,6.029,13.3004,4.60042,2470.1,2020-7-23T13:33:15Z
2020-07-23T11:35:31Z,42.805,6.029,13.3006,4.60039,2470.04,2020-7-23T13:36:18Z
2020-07-23T11:38:34Z,42.805,6.029,13.3015,4.60049,2470.063,2020-7-23T13:39:21Z
2020-07-23T11:41:37Z,42.805,6.029,13.2993,4.60046,2470.1,2020-7-23T13:42:25Z
2020-07-23T11:44:41Z,42.805,6.029,13.2997,4.60032,2470.1,2020-7-23T13:45:28Z
2020-07-23T11:47:44Z,42.805,6.029,13.2996,4.60038,2470.087,2020-7-23T13:48:31Z
2020-07-23T11:50:47Z,42.805,6.029,13.3024,4.60036,2470.077,2020-7-23T13:51:34Z
2020-07-23T11:53:50Z,42.805,6.029,13.2988,4.60022,2470.087,2020-7-23T13:54:37Z
2020-07-23T11:56:53Z,42.805,6.029,13.2984,4.60008,2470.1,2020-7-23T13:57:41Z
2020-07-23T11:59:57Z,42.805,6.029,13.2995,4.60006,2470.063,2020-7-23T14:00:44Z
2020-07-23T12:03:00Z,42.805,6.029,13.2993,4.60042,2470.053,2020-7-23T14:03:47Z
2020-07-23T12:06:03Z,42.805,6.029,13.2985,4.60033,2470.077,2020-7-23T14:06:50Z
2020-07-23T12:09:06Z,42.805,6.029,13.3010,4.60055,2470.03,2020-7-23T14:09:54Z
2020-07-23T12:12:10Z,42.805,6.029,13.3014,4.60041,2470.04,2020-7-23T14:12:57Z
2020-07-23T12:15:13Z,42.805,6.029,13.3010,4.60033,2470.053,2020-7-23T14:16:01Z
2020-07-23T12:18:16Z,42.805,6.029,13.3005,4.60029,2470.091,2020-7-23T14:19:04Z
2020-07-23T12:21:20Z,42.805,6.029,13.2995,4.60039,2470.053,2020-7-23T14:22:07Z
2020-07-23T12:24:23Z,42.805,6.029,13.3009,4.60029,2470.04,2020-7-23T14:25:10Z
2020-07-23T12:27:26Z,42.805,6.029,13.3011,4.60044,2470.053,2020-7-23T14:28:14Z
2020-07-23T12:30:30Z,42.805,6.029,13.2997,4.60014,2470.053,2020-7-23T14:31:17Z
2020-07-23T12:33:33Z,42.805,6.029,13.2989,4.60029,2470.053,2020-7-23T14:34:20Z
2020-07-23T12:36:36Z,42.805,6.029,13.3024,4.60081,2470.063,2020-7-23T14:37:23Z
2020-07-23T12:39:39Z,42.805,6.029,13.3008,4.60048,2470.017,2020-7-23T14:40:27Z
2020-07-23T12:42:42Z,42.805,6.029,13.3029,4.60047,2470.04,2020-7-23T14:43:30Z
2020-07-23T12:45:46Z,42.805,6.029,13.3019,4.60036,2470.017,2020-7-23T14:46:33Z
2020-07-23T12:48:49Z,42.805,6.029,13.3011,4.60001,2470.03,2020-7-23T14:49:36Z
2020-07-23T12:51:52Z,42.805,6.029,13.3026,4.60054,2470.04,2020-7-23T14:52:40Z
2020-07-23T12:54:55Z,42.805,6.029,13.2991,4.60049,2470.03,2020-7-23T14:55:43Z
2020-07-23T12:57:59Z,42.805,6.029,13.2980,4.60015,2469.984,2020-7-23T14:58:46Z
2020-07-23T13:01:02Z,42.805,6.029,13.2983,4.60047,2470.017,2020-7-23T15:01:49Z
2020-07-23T13:04:05Z,42.805,6.029,13.3006,4.60057,2470.017,2020-7-23T15:04:52Z
2020-07-23T13:07:08Z,42.805,6.029,13.3021,4.60030,2469.993,2020-7-23T15:07:56Z
2020-07-23T13:10:11Z,42.805,6.029,13.3006,4.60020,2470.053,2020-7-23T15:10:59Z
2020-07-23T13:13:15Z,42.805,6.029,13.3014,4.60039,2470.017,2020-7-23T15:14:02Z
2020-07-23T13:16:18Z,42.805,6.029,13.2996,4.60049,2470.017,2020-7-23T15:17:05Z
2020-07-23T13:19:21Z,42.805,6.029,13.2978,4.60021,2470.017,2020-7-23T15:20:09Z
2020-07-23T13:22:24Z,42.805,6.029,13.2991,4.60036,2469.993,2020-7-23T15:23:12Z
2020-07-23T13:25:28Z,42.805,6.029,13.3023,4.60049,2470.03,2020-7-23T15:26:15Z
2020-07-23T13:28:31Z,42.805,6.029,13.3024,4.60027,2470.03,2020-7-23T15:29:18Z
2020-07-23T13:31:34Z,42.805,6.029,13.3000,4.59996,2470.007,2020-7-23T15:32:22Z
2020-07-23T13:34:37Z,42.805,6.029,13.3004,4.60024,2470.007,2020-7-23T15:35:25Z
2020-07-23T13:37:41Z,42.805,6.029,13.3006,4.60019,2470.017,2020-7-23T15:38:28Z
2020-07-23T13:40:44Z,42.805,6.029,13.3013,4.59989,2469.97,2020-7-23T15:41:31Z
2020-07-23T13:43:47Z,42.805,6.029,13.3008,4.60003,2469.984,2020-7-23T15:44:35Z
2020-07-23T13:46:51Z,42.805,6.029,13.3019,4.59996,2469.993,2020-7-23T15:47:38Z
2020-07-23T13:49:54Z,42.805,6.029,13.3021,4.60042,2470.007,2020-7-23T15:50:41Z
2020-07-23T13:52:57Z,42.805,6.029,13.3015,4.60026,2469.984,2020-7-23T15:53:44Z
2020-07-23T13:56:00Z,42.805,6.029,13.3018,4.60003,2469.97,2020-7-23T15:56:48Z
2020-07-23T13:59:03Z,42.805,6.029,13.3006,4.60006,2469.993,2020-7-23T15:59:51Z
2020-07-23T14:02:07Z,42.805,6.029,13.2991,4.59998,2469.96,2020-7-23T16:02:54Z
2020-07-23T14:05:10Z,42.805,6.029,13.3009,4.60005,2469.993,2020-7-23T16:05:57Z
2020-07-23T14:08:13Z,42.805,6.029,13.2984,4.60003,2469.97,2020-7-23T16:09:01Z
2020-07-23T14:11:16Z,42.805,6.029,13.2996,4.60021,2469.97,2020-7-23T16:12:04Z
2020-07-23T14:14:20Z,42.805,6.029,13.3004,4.59994,2469.96,2020-7-23T16:15:07Z
2020-07-23T14:17:23Z,42.805,6.029,13.3001,4.60016,2470.007,2020-7-23T16:18:10Z
2020-07-23T14:20:26Z,42.805,6.029,13.2990,4.60008,2469.984,2020-7-23T16:21:14Z
2020-07-23T14:23:30Z,42.805,6.029,13.2984,4.60008,2469.97,2020-7-23T16:24:17Z
2020-07-23T14:26:33Z,42.805,6.029,13.2991,4.59996,2469.97,2020-7-23T16:27:20Z
2020-07-23T14:29:36Z,42.805,6.029,13.3000,4.59987,2469.984,2020-7-23T16:30:23Z
2020-07-23T14:32:39Z,42.805,6.029,13.2995,4.59987,2469.97,2020-7-23T16:33:27Z
2020-07-23T14:35:43Z,42.805,6.029,13.2999,4.59986,2469.97,2020-7-23T16:36:30Z
2020-07-23T14:38:46Z,42.805,6.029,13.2996,4.60034,2469.993,2020-7-23T16:39:33Z
2020-07-23T14:41:49Z,42.805,6.029,13.2991,4.59989,2469.97,2020-7-23T16:42:37Z
2020-07-23T14:44:53Z,42.805,6.029,13.2983,4.59995,2469.947,2020-7-23T16:45:40Z
2020-07-23T14:47:56Z,42.805,6.029,13.2999,4.60012,2469.984,2020-7-23T16:48:43Z
2020-07-23T14:50:59Z,42.805,6.029,13.2996,4.59998,2469.96,2020-7-23T16:51:47Z
2020-07-23T14:54:02Z,42.805,6.029,13.2986,4.60007,2469.97,2020-7-23T16:54:50Z
2020-07-23T14:57:06Z,42.805,6.029,13.3000,4.59995,2469.96,2020-7-23T16:57:53Z
2020-07-23T15:00:09Z,42.805,6.029,13.2998,4.60008,2469.947,2020-7-23T17:00:56Z
2020-07-23T15:03:12Z,42.805,6.029,13.2996,4.60003,2469.984,2020-7-23T17:04:00Z
2020-07-23T15:06:15Z,42.805,6.029,13.2990,4.60003,2469.96,2020-7-23T17:07:03Z
2020-07-23T15:09:18Z,42.805,6.029,13.2984,4.60003,2469.96,2020-7-23T17:10:06Z
2020-07-23T15:12:22Z,42.805,6.029,13.3007,4.60035,2469.993,2020-7-23T17:13:09Z
2020-07-23T15:15:25Z,42.805,6.029,13.3015,4.60005,2469.96,2020-7-23T17:16:12Z